Terminal Aerodrome Forecast
Issued by NWS Green Bay, WI

Home | Current Version | Previous Version | Graphics & Text | Print | Product List | Glossary On
Versions: 1 2 3 4 5 6 7 8 9 10 11 12 13 14 15 16 17 18 19 20 21 22 23 24 25 26
000
FTUS43 KGRB 012300
TAFGRB
TAF
KGRB 012335Z 0200/0224 21005KT P6SM SCT080 BKN110
     FM021400 22010KT P6SM SCT050
      TEMPO 0214/0218 BKN050=

USA.gov is the U.S. government's official web portal to all federal, state and local government web resources and services.